Weather History for Newberry, MI

Change the Weather History Date:

Friday, March 23, 2012

  Actual Average Record
Temperature  
Mean Temperature 50 °F -  
Max Temperature 53 °F 38 °F 61 °F (1987)
Min Temperature 48 °F 18 °F -5 °F (1916)
Degree Days  
Heating Degree Days 14    
Moisture  
Dew Point 48 °F    
Average Humidity 89    
Maximum Humidity 94    
Minimum Humidity 82    
Precipitation  
Precipitation 0.00 in - - ()
Sea Level Pressure  
Sea Level Pressure 30.13 in    
Wind  
Wind Speed 7 mph (East)    
Max Wind Speed 16 mph    
Max Gust Speed 26 mph    
Visibility 10 miles    
Events Rain    
Averages and records for this station are not official NWS values.
T = Trace of Precipitation, MM = Missing Value Source: NWS Daily Summary

Daily Weather History Graph

Daily Weather History Graph

Search for Another Location

Airport:

Trip Planner

Search our weather history database for the weather conditions in past years. The results will help you decide how hot, cold, wet, or windy it might be!

Date:

Astronomy

Mar. 23, 2012 Rise Set
Actual Time 7:38 AM EDT 7:59 PM EDT
Civil Twilight 7:07 AM EDT 8:29 PM EDT
Nautical Twilight 6:32 AM EDT 9:04 PM EDT
Astronomical Twilight 5:56 AM EDT 9:41 PM EDT
Moon 7:39 AM EDT 9:29 PM EDT
Length of Visible Light 13h 21m
Length of Day
12h 21m
New Moon, 1% of the Moon is Illuminated
Mar 23
New Moon
Mar 30
First Quarter
Apr 6
Full
Apr 13
Last Quarter
Apr 21
New

Hourly Weather History & Observations

Time (EDT) Temp. Dew Point Humidity Pressure Visibility Wind Dir Wind Speed Gust Speed Precip Events Conditions
12:14 AM 50.0 °F 46.4 °F 87% 30.21 in 10.0 mi ENE 5.8 mph - N/A   Overcast
12:34 AM 50.0 °F 46.4 °F 87% 30.20 in 10.0 mi ENE 5.8 mph - N/A   Overcast
12:55 AM 50.0 °F 48.2 °F 94% 30.19 in 10.0 mi ENE 5.8 mph - N/A   Overcast
1:14 AM 50.0 °F 48.2 °F 94% 30.19 in 10.0 mi East 6.9 mph - N/A   Overcast
1:34 AM 51.8 °F 48.2 °F 88% 30.19 in 10.0 mi East 5.8 mph - N/A   Overcast
1:55 AM 50.0 °F 48.2 °F 94% 30.17 in 10.0 mi ENE 5.8 mph - N/A   Mostly Cloudy
2:14 AM 48.2 °F 46.4 °F 93% 30.17 in 10.0 mi ENE 5.8 mph - N/A   Scattered Clouds
2:35 AM 48.2 °F 46.4 °F 93% 30.16 in 10.0 mi East 4.6 mph - N/A   Clear
2:55 AM 51.8 °F 48.2 °F 88% 30.16 in 10.0 mi East 8.1 mph - N/A   Scattered Clouds
3:14 AM 51.8 °F 48.2 °F 88% 30.15 in 10.0 mi East 8.1 mph - N/A   Scattered Clouds
3:35 AM 51.8 °F 48.2 °F 88% 30.15 in 10.0 mi ENE 5.8 mph - N/A   Mostly Cloudy
3:54 AM 50.0 °F 46.4 °F 87% 30.15 in 10.0 mi ENE 4.6 mph - N/A   Scattered Clouds
4:15 AM 48.2 °F 46.4 °F 93% 30.14 in 10.0 mi NE 4.6 mph - N/A   Clear
4:35 AM 48.2 °F 46.4 °F 93% 30.14 in 10.0 mi ENE 4.6 mph - N/A   Mostly Cloudy
4:54 AM 50.0 °F 46.4 °F 87% 30.13 in 10.0 mi East 5.8 mph - N/A   Overcast
5:15 AM 50.0 °F 46.4 °F 87% 30.13 in 10.0 mi East 5.8 mph - N/A   Overcast
5:34 AM 50.0 °F 46.4 °F 87% 30.13 in 10.0 mi ENE 8.1 mph - N/A   Scattered Clouds
5:54 AM 50.0 °F 46.4 °F 87% 30.14 in 10.0 mi East 6.9 mph - N/A   Mostly Cloudy
6:15 AM 51.8 °F 46.4 °F 82% 30.15 in 10.0 mi ESE 6.9 mph - N/A   Overcast
6:34 AM 50.0 °F 46.4 °F 87% 30.15 in 10.0 mi SE 4.6 mph - N/A   Overcast
6:54 AM 50.0 °F 46.4 °F 87% 30.14 in 10.0 mi East 5.8 mph - N/A   Overcast
7:15 AM 50.0 °F 46.4 °F 87% 30.14 in 10.0 mi ESE 4.6 mph - N/A   Overcast
7:34 AM 50.0 °F 46.4 °F 87% 30.14 in 10.0 mi SE 4.6 mph - N/A   Overcast
7:54 AM 50.0 °F 46.4 °F 87% 30.14 in 10.0 mi SE 5.8 mph - N/A   Overcast
8:15 AM 50.0 °F 46.4 °F 87% 30.14 in 10.0 mi ESE 8.1 mph - N/A Rain Rain
8:34 AM 50.0 °F 46.4 °F 87% 30.15 in 10.0 mi ESE 8.1 mph - N/A Rain Light Rain
8:55 AM 50.0 °F 46.4 °F 87% 30.15 in 5.0 mi East 9.2 mph - N/A Rain Heavy Rain
9:14 AM 48.2 °F 46.4 °F 93% 30.15 in 10.0 mi ESE 9.2 mph - N/A Rain Light Rain
9:34 AM 48.2 °F 46.4 °F 93% 30.14 in 10.0 mi East 9.2 mph - N/A   Overcast
9:55 AM 50.0 °F 46.4 °F 87% 30.14 in 10.0 mi East 6.9 mph - N/A   Overcast
10:14 AM 50.0 °F 46.4 °F 87% 30.14 in 10.0 mi East 8.1 mph - N/A   Overcast
10:34 AM 50.0 °F 46.4 °F 87% 30.13 in 10.0 mi ENE 9.2 mph - N/A   Overcast
10:55 AM 50.0 °F 46.4 °F 87% 30.13 in 10.0 mi East 9.2 mph - N/A   Overcast
11:14 AM 50.0 °F 46.4 °F 87% 30.13 in 10.0 mi ESE 8.1 mph - N/A   Overcast
11:35 AM 51.8 °F 48.2 °F 88% 30.13 in 10.0 mi East 8.1 mph - N/A   Overcast
11:55 AM 51.8 °F 48.2 °F 88% 30.13 in 10.0 mi East 8.1 mph - N/A   Overcast
12:14 PM 51.8 °F 48.2 °F 88% 30.12 in 10.0 mi East 8.1 mph - N/A   Overcast
12:35 PM 51.8 °F 48.2 °F 88% 30.12 in 10.0 mi ESE 9.2 mph - N/A   Overcast
12:54 PM 53.6 °F 50.0 °F 88% 30.11 in 10.0 mi East 11.5 mph - N/A   Overcast
1:15 PM 53.6 °F 48.2 °F 82% 30.11 in 10.0 mi East 12.7 mph - N/A   Overcast
1:34 PM 53.6 °F 50.0 °F 88% 30.10 in 10.0 mi East 13.8 mph 18.4 mph N/A   Overcast
1:54 PM 51.8 °F 50.0 °F 94% 30.10 in 10.0 mi East 11.5 mph - N/A   Drizzle
2:14 PM 51.8 °F 50.0 °F 94% 30.09 in 10.0 mi East 12.7 mph 19.6 mph N/A   Overcast
2:34 PM 51.8 °F 50.0 °F 94% 30.08 in 10.0 mi East 12.7 mph 19.6 mph N/A   Overcast
2:55 PM 51.8 °F 50.0 °F 94% 30.07 in 10.0 mi East 13.8 mph 18.4 mph N/A   Overcast
3:14 PM 51.8 °F 48.2 °F 88% 30.06 in 7.0 mi East 15.0 mph 23.0 mph N/A Rain Light Rain
3:35 PM 51.8 °F 50.0 °F 94% 30.06 in 10.0 mi East 13.8 mph 20.7 mph N/A Rain Light Rain
3:54 PM 51.8 °F 48.2 °F 88% 30.05 in 10.0 mi East 16.1 mph 24.2 mph N/A Rain Light Rain
4:14 PM 51.8 °F 48.2 °F 88% 30.05 in 10.0 mi East 12.7 mph - N/A Rain Light Rain
4:35 PM 51.8 °F 48.2 °F 88% 30.04 in 10.0 mi ESE 16.1 mph 26.5 mph N/A Rain Light Rain
4:54 PM 50.0 °F 48.2 °F 94% 30.04 in 10.0 mi East 13.8 mph 26.5 mph N/A Rain Light Rain
5:14 PM 50.0 °F 48.2 °F 94% 30.03 in 10.0 mi ESE 16.1 mph 21.9 mph N/A Rain Light Rain
5:35 PM 51.8 °F 48.2 °F 88% 30.02 in 10.0 mi East 16.1 mph 26.5 mph N/A   Light Drizzle
5:54 PM 51.8 °F 48.2 °F 88% 30.01 in 10.0 mi East 18.4 mph 23.0 mph N/A   Drizzle
6:15 PM 51.8 °F 48.2 °F 88% 30.02 in 10.0 mi East 10.4 mph 19.6 mph N/A   Overcast
6:34 PM 50.0 °F 48.2 °F 94% 30.01 in 10.0 mi East 12.7 mph 19.6 mph N/A   Overcast
6:55 PM 50.0 °F 46.4 °F 87% 30.01 in 10.0 mi East 12.7 mph 23.0 mph N/A   Overcast
7:14 PM 48.2 °F 46.4 °F 93% 30.02 in 10.0 mi East 11.5 mph 19.6 mph N/A   Overcast
7:34 PM 48.2 °F 46.4 °F 93% 30.02 in 10.0 mi East 15.0 mph 19.6 mph N/A   Overcast
7:55 PM 48.2 °F 46.4 °F 93% 30.02 in 7.0 mi East 11.5 mph 20.7 mph N/A Rain Rain
8:14 PM 48.2 °F 44.6 °F 87% 30.01 in 10.0 mi East 16.1 mph 21.9 mph N/A   Overcast
8:35 PM 48.2 °F 44.6 °F 87% 30.02 in 10.0 mi East 13.8 mph 19.6 mph N/A Rain Light Rain
8:54 PM 48.2 °F 44.6 °F 87% 30.02 in 10.0 mi East 12.7 mph 21.9 mph N/A   Light Drizzle
9:15 PM 48.2 °F 44.6 °F 87% 30.01 in 10.0 mi East 13.8 mph - N/A   Overcast
9:35 PM 48.2 °F 44.6 °F 87% 30.01 in 10.0 mi East 10.4 mph 16.1 mph N/A   Overcast
9:54 PM 48.2 °F 44.6 °F 87% 30.01 in 10.0 mi East 10.4 mph - N/A   Overcast
10:15 PM 48.2 °F 44.6 °F 87% 30.01 in 10.0 mi East 11.5 mph 18.4 mph N/A   Overcast
10:34 PM 48.2 °F 42.8 °F 82% 30.00 in 10.0 mi East 13.8 mph - N/A   Overcast
10:54 PM 48.2 °F 42.8 °F 82% 30.00 in 10.0 mi East 12.7 mph 19.6 mph N/A   Overcast
11:15 PM 48.2 °F 42.8 °F 82% 29.99 in 10.0 mi East 12.7 mph 21.9 mph N/A   Overcast
11:34 PM 48.2 °F 42.8 °F 82% 29.99 in 10.0 mi East 12.7 mph - N/A   Overcast
11:55 PM 48.2 °F 42.8 °F 82% 29.99 in 10.0 mi East 10.4 mph 17.3 mph N/A   Overcast